Regional Weather Roundup
Issued by NWS Mobile, AL

Home | Current Version | Previous Version | Text Only | Print | Product List | Glossary On
Versions: 1 2 3 4 5 6 7 8 9 10 11 12 13 14 15 16 17 18 19 20 21 22 23 24 25 26 27 28 29 30 31 32 33 34 35 36 37 38 39 40 41 42 43 44 45 46 47 48 49 50
000
ASUS44 KMOB 300910
RWRMOB
REGIONAL WEATHER ROUNDUP
NATIONAL WEATHER SERVICE MOBILE AL
400 AM CDT SAT AUG 30 2014

NOTE: "FAIR" INDICATES FEW OR NO CLOUDS BELOW 12,000 FEET WITH NO
      SIGNIFICANT WEATHER AND/OR OBSTRUCTIONS TO VISIBILITY.

  * THESE STATIONS ARE PART OF THE UNIVERSITY OF SOUTH ALABAMA
    MESONET AND ARE NOT UNDER NWS OR FAA QUALITY CONTROL.

ALZ061>064-301000-
COASTAL ALABAMA

CITY           SKY/WX    TMP DP  RH WIND       PRES   REMARKS
MOBILE REG APT CLOUDY    77  76  96 S6        30.04S
BROOKLEY FIELD CLOUDY    81  77  88 S7        30.03F
USA CAMPUS*      N/A     77  75  94 CALM      30.02F
DOG RIVER*       N/A     81  77  89 S3        30.03S


CITY           SKY/WX    TMP DP  RH WIND       PRES   REMARKS
MOUNT VERNON*    N/A     72  70  94 CALM      30.03F
SARALAND*      NOT AVBL
BAY MINETTE*   NOT AVBL
LOXLEY*          N/A     72  72 100 CALM      30.04S
ROBERTSDALE*     N/A    N/A N/A N/A CALM      30.04S
FAIRHOPE*        N/A     75  75 100 E2        30.02F
ELBERTA*         N/A     75  63  64 CALM      30.03S
FOLEY*         NOT AVBL
GRAND BAY*       N/A     75  75 100 CALM      30.01S
DAUPHIN ISLND* NOT AVBL
BON SCOUR NWR* NOT AVBL
GULF SHORES    CLOUDY    80  77  90 SE6       30.03R

$$

ALZ051>060-301000-
INTERIOR SOUTHWEST AND SOUTH CENTRAL ALABAMA

CITY           SKY/WX    TMP DP  RH WIND       PRES   REMARKS
GREENVILLE     CLOUDY    75  73  93 S3        30.06S
EVERGREEN      CLOUDY    77  74  90 SE3       30.06S
CASTLEBERRY*   NOT AVBL
ATMORE*          N/A     73  73 100 CALM      30.06S
DIXIE*         NOT AVBL
ANDALUSIA/OPP  PTCLDY    78  73  84 SE3       30.07R
ANDALUSIA*     NOT AVBL
FLORALA APT    PTCLDY    75  73  93 CALM      30.08R
FLORALA*         N/A     73  72  94 CALM      30.04R

$$

FLZ001>006-301000-
WESTERN FLORIDA PANHANDLE

CITY           SKY/WX    TMP DP  RH WIND       PRES   REMARKS
PENSACOLA      CLOUDY    78  74  87 S6        30.04S
NAS PENSACOLA  CLOUDY    81  75  82 S8        30.03S
MILTON         MOCLDY    75  72  90 CALM      30.04F
WHTNG S FIELD    N/A    N/A N/A N/A MISG      30.04F


CITY           SKY/WX    TMP DP  RH WIND       PRES   REMARKS
WALNUT HILL*   NOT AVBL
JAY*           NOT AVBL
DUKE FIELD     MOCLDY    75  75 100 E2        30.06R
CRESTVIEW      PTCLDY    74  73  97 NE3       30.07S
VALPARAISO     MOCLDY    80  76  86 N1        30.04F
DESTIN         MOCLDY    83  76  79 SW5       30.04S

$$

MSZ076-079-301000-
INTERIOR SOUTHEAST MISSISSIPPI

CITY           SKY/WX    TMP DP  RH WIND       PRES   REMARKS
LEAKESVILLE*     N/A     73  72  94 E2          N/A
AGRICOLA*      NOT AVBL

$$

MARINE OBSERVATIONS

STATION/POSITION TIME  TEMP    WIND        PRES    WAVE
                       AIR SEA DIR/SP/G            HT/PER
                 (UTC) (F)     (DEG/KT/KT) (MB)    (FT/S)
PASCAGOULA       0900   83     170/ 15/ 17 1016.2F
PETIT BOIS ISLND 0900   83     160/ 13/ 16 1016.6F
GRAND BAY        0800   83     160/ 12     1017.0F
KATRINA CUT      0800   83     170/ 12     1016.9F
CEDAR POINT      0800   82     170/ 13     1015.9F
E DAUPHIN ISLAND 0800   83     150/ 13/ 15 1016.5F
MIDDLE BAY LIGHT 0800   83     160/ 13     1015.6F
USCG MOBILE BAY  0900   82 86  190/  4/ 10 1015.5R
STATE DOCKS      0900   82 85              1016.4R
MEAHER PARK      0800   79     110/  4     1016.3F
WEEKS BAY        0800   73                   N/A
FORT MORGAN      0900   83     190/ 15/ 16 1016.1R
12 S ORANGE BCH  0900   82 85  160/ 12/ 14 1016.8R   2/ 5
PENSACOLA BAY    0900   83 85  190/  3/  6 1017.3F
64 S DAUPHIN ISL 0900   82 84  150/  8/ 10 1016.8F

$$

SELECTED LOCATIONS ACROSS THE REGION

CITY           SKY/WX    TMP DP  RH WIND       PRES   REMARKS
NEW ORLEANS    CLOUDY    79  75  87 SE6       29.99S
GULFPORT       CLOUDY    82  77  84 S8        30.00S
PASCAGOULA AP  CLOUDY    76  75  97 CALM      30.02S
PASCAGOULA*      N/A     82  77  83 S8        30.01S
HATTIESBURG    CLOUDY    76  74  93 CALM      30.03S
LAUREL         CLOUDY    73  72  94 CALM      30.04S
MERIDIAN       CLOUDY    75  72  90 S3        30.04S
JACKSON        CLOUDY    76  72  87 SE6       30.02R
MONTGOMERY     MOCLDY    77  73  87 CALM      30.06F
TROY           PTCLDY    76  73  91 CALM      30.08S
KINSTON*       NOT AVBL
GENEVA*          N/A     70  70 100 CALM      30.09R
ASHFORD*       NOT AVBL
DOTHAN         FOG       73  72  94 E3        30.12S VSB 1/2
PANAMA CITY    PTCLDY    76  73  91 NE5       30.05R

$$




USA.gov is the U.S. government's official web portal to all federal, state and local government web resources and services.